Regional Weather Roundup
Issued by NWS

Home | Current Version | Previous Version | Graphics & Text | Print | Product List | Glossary On
Versions: 1 2 3 4 5 6 7 8 9 10 11 12 13 14 15 16 17 18 19 20 21 22 23 24 25 26 27 28 29 30 31 32 33 34 35 36 37 38 39 40 41 42 43 44 45 46 47 48 49 50
000
ASUS43 KTOP 181508
RWRKS

WEATHER ROUNDUP FOR KANSAS
NATIONAL WEATHER SERVICE GOODLAND KS
1000 AM CDT SAT APR 18 2015

NOTE:  "FAIR" INDICATES FEW OR NO CLOUDS BELOW 12,000 FEET WITH NO
SIGNIFICANT WEATHER AND/OR OBSTRUCTIONS TO VISIBILITY.

KSZ001>006-013>018-027>032-041>047-181600-
NORTHWEST KANSAS

CITY           SKY/WX    TMP DP  RH WIND       PRES   REMARKS
GOODLAND       CLOUDY    46  46 100 E6        29.92S
HAYS           MOSUNNY   61  48  63 E8        29.89F
HILL CITY      CLOUDY    55  52  89 E5        29.91F
RUSSELL        PTSUNNY   61  55  81 S6        29.88F
$$

KSZ061>065-074>080-084>089-181600-
SOUTHWEST KANSAS

CITY           SKY/WX    TMP DP  RH WIND       PRES   REMARKS
DODGE CITY     CLOUDY    57  53  86 SE10      29.88F
ELKHART          N/A    N/A N/A N/A MISG        N/A
GARDEN CITY    CLOUDY    50  48  93 S8        29.88S FOG
GREAT BEND     CLOUDY    57  54  88 S6        29.90S
LIBERAL        SUNNY     52  43  71 NW7       29.91F
PRATT          SUNNY     64  55  72 SW6       29.90S
$$

KSZ066>073-081>083-090>101-181600-
SOUTHEAST KANSAS

CITY           SKY/WX    TMP DP  RH WIND       PRES   REMARKS
CHANUTE        LGT RAIN  62  61  96 SW9       29.95S
COFFEYVILLE    LGT RAIN  61  59  93 S5        29.98R FOG
HUTCHINSON     CLOUDY    64  59  83 S8        29.90F
MEDICINE LODGE   N/A     65  57  75 S12       29.90F
NEWTON         CLOUDY    61  55  82 SE6       29.93S
PARSONS        LGT RAIN  61  61 100 S6        29.98R
WICHITA INTL   LGT RAIN  63  59  87 SE3       29.92R
WICHITA JABRA  CLOUDY    63  60  90 MISG      29.92R
WICHITA MCCONL LGT RAIN  64  61  88 SE7       29.93R
WINFIELD       CLOUDY    63  62  97 MISG      29.94R
$$

KSZ007>012-019>026-033>040-048>060-102>105-181600-
NORTHEAST KANSAS

CITY           SKY/WX    TMP DP  RH WIND       PRES   REMARKS
CONCORDIA      CLOUDY    59  59 100 SE6       29.90S FOG
EMPORIA        LGT RAIN  60  57  89 E10       29.94S
LAWRENCE       TSTM      59  57  93 SW21G32   29.92F FOG
MANHATTAN      LGT RAIN  62  61  96 CALM      29.92S FOG
MARYSVILLE     LGT RAIN  63  59  88 SE3       29.92S
OLATHE IND     LGT RAIN  61  58  90 SW15G24   29.95R
OLATHE EXE     TSTM      60  58  92 S12       29.96R FOG
SALINA         CLOUDY    62  58  86 E5        29.90S
TOPEKA BILLARD RAIN      61  59  93 S9        29.95R FOG
TOPEKA FORBES  RAIN      61  58  90 S13       29.96R FOG
$$


USA.gov is the U.S. government's official web portal to all federal, state and local government web resources and services.